Вернуться в каталог

METEOR 2-17 DEB

LostPO
NORAD 35372·DEBRIS·🇷🇺 Russia

Запущен Jan 30, 1988 с Plesetsk Cosmodrome

Loading…

Ближайшие Пролёты (ближайшие 24 часа)

TLE

УстаревшееSource: Space-Track

Эпоха: Jul 26, 2026, 20:05 UTC

1 35372U 88005AG  26207.83700640  .00001858  00000-0  12049-2 0  9996
2 35372  82.5233 245.2122 0020027 117.1832   7.9018 14.02095278669562

Отслеживайте METEOR 2-17 DEB в реальном времени с AllMySat

Download on the App Store